| time (UTC) | temp F | wind direction | speed MPH | gust MPH | rain 1hr in | rain 24hr in | rain mn in | humidity % | barometer mb |
| 20260902035600 | 78 | 325 | 5.0 | 6.0 | 0.00 | 0.43 | 0.43 | 95 | 1015.8 |
| 20260902035056 | 78 | 316 | 7.0 | 8.0 | 0.00 | 0.43 | 0.43 | 95 | 1015.9 |
| 20260902034555 | 78 | 9 | 4.0 | 5.0 | 0.05 | 0.43 | 0.43 | 95 | 1015.9 |
| 20260902034055 | 78 | 357 | 4.0 | 5.0 | 0.05 | 0.43 | 0.43 | 95 | 1015.9 |
| 20260902033554 | 78 | 331 | 5.0 | 6.0 | 0.00 | 0.42 | 0.42 | 96 | 1016.1 |
| 20260902033049 | 77 | 282 | 6.0 | 7.0 | 0.00 | 0.42 | 0.42 | 96 | 1016.3 |
| 20260902032547 | 77 | 337 | 4.0 | 5.0 | 0.00 | 0.42 | 0.42 | 96 | 1016.4 |
| 20260902032043 | 77 | 355 | 4.0 | 5.0 | 0.00 | 0.42 | 0.42 | 96 | 1016.1 |
| 20260902031537 | 77 | 94 | 3.0 | 5.0 | 0.00 | 0.42 | 0.42 | 96 | 1016.3 |
| 20260902031034 | 77 | 327 | 3.0 | 5.0 | 0.00 | 0.42 | 0.42 | 96 | 1016.6 |
| 20260902030534 | 77 | 3 | 3.0 | 3.0 | 0.00 | 0.42 | 0.42 | 95 | 1016.8 |
| 20260902030034 | 77 | 327 | 5.0 | 7.0 | 0.07 | 0.42 | 0.42 | 95 | 1016.5 |
| 20260902025528 | 77 | 276 | 3.0 | 3.0 | 0.07 | 0.42 | 0.42 | 94 | 1016.7 |
| 20260902025024 | 78 | 305 | 3.0 | 3.0 | 0.00 | 0.41 | 0.41 | 93 | 1016.6 |
| 20260902024514 | 78 | 19 | 1.0 | 2.0 | 0.05 | 0.41 | 0.41 | 93 | 1016.7 |
| 20260902024013 | 79 | 33 | 4.0 | 5.0 | 0.05 | 0.41 | 0.41 | 91 | 1016.5 |
| 20260902023509 | 79 | 140 | 2.0 | 2.0 | 0.00 | 0.40 | 0.40 | 90 | 1016.6 |
| 20260902023004 | 80 | 229 | 3.0 | 3.0 | 0.00 | 0.40 | 0.40 | 88 | 1016.3 |
| 20260902022458 | 80 | 99 | 1.0 | 2.0 | 0.00 | 0.40 | 0.40 | 88 | 1016.6 |
| 20260902021954 | 80 | 29 | 7.0 | 9.0 | 0.00 | 0.40 | 0.40 | 87 | 1016.5 |
| 20260902021449 | 80 | 291 | 5.0 | 6.0 | 0.00 | 0.40 | 0.40 | 88 | 1016.2 |
| 20260902020944 | 80 | 355 | 4.0 | 5.0 | 0.00 | 0.40 | 0.40 | 88 | 1016.3 |
| 20260902020440 | 80 | 36 | 2.0 | 3.0 | 0.00 | 0.40 | 0.40 | 87 | 1016.7 |
| 20260902015936 | 80 | 5 | 1.0 | 2.0 | 0.00 | 0.40 | 0.40 | 87 | 1016.4 |
| 20260902015431 | 80 | 121 | 2.0 | 2.0 | 0.00 | 0.40 | 0.40 | 88 | 1016.6 |
| 20260902014926 | 80 | 146 | 3.0 | 7.0 | 0.00 | 0.40 | 0.40 | 89 | 1016.8 |
| 20260902014423 | 80 | 160 | 2.0 | 2.0 | 0.00 | 0.40 | 0.40 | 89 | 1016.5 |
| 20260902013922 | 80 | 114 | 1.0 | 1.0 | 0.00 | 0.40 | 0.40 | 89 | 1016.5 |
| 20260902013418 | 79 | 60 | 4.0 | 5.0 | 0.00 | 0.40 | 0.40 | 90 | 1016.4 |
| 20260902012913 | 79 | 103 | 2.0 | 2.0 | 0.00 | 0.40 | 0.40 | 91 | 1016.5 |
| 20260902012409 | 79 | 267 | 1.0 | 1.0 | 0.00 | 0.40 | 0.40 | 92 | 1016.5 |
| 20260902011904 | 79 | 166 | 0.0 | 1.0 | 0.00 | 0.40 | 0.40 | 92 | 1016.5 |
| 20260902011359 | 79 | 115 | 2.0 | 3.0 | 0.00 | 0.40 | 0.40 | 93 | 1016.3 |
| 20260902010853 | 78 | 70 | 1.0 | 1.0 | 0.00 | 0.40 | 0.40 | 94 | 1016.3 |
| 20260902010347 | 78 | 166 | 0.0 | 0.0 | 0.00 | 0.40 | 0.40 | 94 | 1016.3 |
| 20260902005846 | 78 | 134 | 0.0 | 1.0 | 0.00 | 0.40 | 0.40 | 94 | 1016.3 |
| 20260902005340 | 78 | 193 | 0.0 | 1.0 | 0.00 | 0.40 | 0.40 | 95 | 1016.5 |
| 20260902004836 | 79 | 156 | 0.0 | 1.0 | 0.00 | 0.40 | 0.40 | 95 | 1016.4 |
| 20260902004331 | 79 | 210 | 1.0 | 1.0 | 0.00 | 0.40 | 0.40 | 95 | 1016.3 |
| 20260902003826 | 79 | 216 | 1.0 | 2.0 | 0.00 | 0.40 | 0.40 | 95 | 1016.4 |
| 20260902003321 | 79 | 211 | 0.0 | 1.0 | 0.00 | 0.40 | 0.40 | 96 | 1016.4 |
| 20260902002817 | 79 | 300 | 1.0 | 2.0 | 0.00 | 0.40 | 0.40 | 96 | 1016.6 |
| 20260902002316 | 79 | 16 | 1.0 | 2.0 | 0.00 | 0.40 | 0.40 | 96 | 1016.7 |
| 20260902001812 | 79 | 200 | 1.0 | 1.0 | 0.00 | 0.40 | 0.40 | 96 | 1016.7 |
| 20260902001306 | 79 | 217 | 0.0 | 0.0 | 0.00 | 0.40 | 0.40 | 97 | 1016.9 |
| 20260902000801 | 79 | 204 | 0.0 | 0.0 | 0.00 | 0.40 | 0.40 | 98 | 1017.0 |
| 20260902000301 | 78 | 170 | 1.0 | 1.0 | 0.00 | 0.40 | 0.40 | 98 | 1016.9 |
| 20260901235756 | 78 | 150 | 0.0 | 0.0 | 0.00 | 0.40 | 0.40 | 98 | 1016.9 |
| 20260901235251 | 78 | 191 | 1.0 | 1.0 | 0.00 | 0.40 | 0.40 | 98 | 1017.1 |
| 20260901234750 | 78 | 170 | 0.0 | 0.0 | 0.00 | 0.40 | 0.40 | 99 | 1016.7 |
| 20260901234239 | 78 | 209 | 0.0 | 1.0 | 0.00 | 0.40 | 0.40 | 99 | 1017.0 |
| 20260901233734 | 78 | 77 | 1.0 | 2.0 | 0.00 | 0.40 | 0.40 | 99 | 1017.1 |
| 20260901233230 | 78 | 17 | 2.0 | 2.0 | 0.00 | 0.40 | 0.40 | 99 | 1016.9 |
| 20260901232725 | 78 | 238 | 0.0 | 0.0 | 0.00 | 0.40 | 0.40 | 99 | 1017.1 |
| 20260901232220 | 78 | 204 | 1.0 | 1.0 | 0.00 | 0.40 | 0.40 | 99 | 1017.2 |
| 20260901231716 | 78 | 150 | 0.0 | 1.0 | 0.00 | 0.40 | 0.40 | 99 | 1017.1 |
| 20260901231212 | 78 | 191 | 0.0 | 0.0 | 0.00 | 0.40 | 0.40 | 99 | 1017.1 |
| 20260901230707 | 78 | 165 | 0.0 | 0.0 | 0.00 | 0.40 | 0.40 | 99 | 1017.2 |
| 20260901230202 | 78 | 197 | 0.0 | 0.0 | 0.00 | 0.40 | 0.40 | 99 | 1017.1 |
| 20260901225657 | 78 | 181 | 0.0 | 0.0 | 0.00 | 0.40 | 0.40 | 99 | 1017.2 |
| 20260901225156 | 78 | 226 | 1.0 | 2.0 | 0.00 | 0.40 | 0.40 | 99 | 1017.2 |
| 20260901224653 | 78 | 194 | 0.0 | 1.0 | 0.00 | 0.40 | 0.40 | 99 | 1017.5 |
| 20260901224149 | 78 | 150 | 2.0 | 3.0 | 0.00 | 0.40 | 0.40 | 99 | 1017.5 |
| 20260901223644 | 79 | 258 | 1.0 | 1.0 | 0.00 | 0.40 | 0.40 | 99 | 1017.5 |
| 20260901223139 | 79 | 202 | 0.0 | 0.0 | 0.00 | 0.40 | 0.40 | 99 | 1017.5 |
| 20260901222636 | 78 | 223 | 1.0 | 1.0 | 0.00 | 0.40 | 0.40 | 99 | 1017.4 |
| 20260901222131 | 78 | 207 | 1.0 | 1.0 | 0.00 | 0.40 | 0.40 | 99 | 1017.4 |
| 20260901221627 | 78 | 205 | 0.0 | 0.0 | 0.00 | 0.40 | 0.40 | 99 | 1017.4 |
| 20260901221123 | 78 | 158 | 1.0 | 1.0 | 0.00 | 0.40 | 0.40 | 99 | 1017.5 |
| 20260901220622 | 78 | 171 | 0.0 | 1.0 | 0.00 | 0.40 | 0.40 | 99 | 1017.4 |
| 20260901220121 | 78 | 150 | 1.0 | 1.0 | 0.00 | 0.40 | 0.40 | 99 | 1017.7 |
| 20260901215620 | 78 | 338 | 3.0 | 3.0 | 0.00 | 0.40 | 0.40 | 99 | 1017.9 |
| 20260901215120 | 78 | 194 | 0.0 | 0.0 | 0.00 | 0.40 | 0.40 | 99 | 1017.9 |
| 20260901214618 | 78 | 167 | 1.0 | 1.0 | 0.00 | 0.40 | 0.40 | 99 | 1018.0 |
| 20260901214113 | 78 | 150 | 0.0 | 1.0 | 0.00 | 0.40 | 0.40 | 99 | 1017.8 |
| 20260901213612 | 78 | 72 | 3.0 | 3.0 | 0.00 | 0.40 | 0.40 | 99 | 1018.0 |
| 20260901213107 | 78 | 200 | 0.0 | 0.0 | 0.00 | 0.40 | 0.40 | 99 | 1018.1 |
| 20260901212607 | 78 | 200 | 0.0 | 0.0 | 0.00 | 0.40 | 0.40 | 99 | 1018.1 |
| 20260901212103 | 78 | 197 | 0.0 | 0.0 | 0.00 | 0.40 | 0.40 | 99 | 1017.8 |
| 20260901211558 | 78 | 211 | 1.0 | 1.0 | 0.07 | 0.40 | 0.40 | 99 | 1018.1 |
| 20260901211055 | 78 | 197 | 0.0 | 0.0 | 0.12 | 0.40 | 0.40 | 99 | 1018.1 |
| 20260901210549 | 78 | 200 | 0.0 | 0.0 | 0.17 | 0.39 | 0.39 | 99 | 1018.2 |
| 20260901210046 | 78 | 194 | 1.0 | 1.0 | 0.19 | 0.38 | 0.38 | 99 | 1018.3 |
| 20260901205541 | 79 | 185 | 1.0 | 1.0 | 0.12 | 0.36 | 0.36 | 99 | 1018.5 |
| 20260901205036 | 79 | 130 | 3.0 | 3.0 | 0.12 | 0.35 | 0.35 | 99 | 1018.7 |
| 20260901204532 | 79 | 180 | 1.0 | 1.0 | 0.14 | 0.34 | 0.34 | 99 | 1018.6 |
| 20260901204027 | 79 | 191 | 0.0 | 0.0 | 0.07 | 0.33 | 0.33 | 98 | 1018.7 |
| 20260901203526 | 79 | 194 | 0.0 | 0.0 | 0.12 | 0.33 | 0.33 | 98 | 1018.6 |
| 20260901203022 | 78 | 173 | 1.0 | 1.0 | 1.18 | 0.32 | 0.32 | 98 | 1018.4 |
| 20260901202516 | 79 | 147 | 2.0 | 2.0 | 1.79 | 0.31 | 0.31 | 97 | 1018.4 |
| 20260901202012 | 80 | 76 | 4.0 | 5.0 | 1.02 | 0.17 | 0.17 | 95 | 1018.8 |
| 20260901201508 | 82 | 72 | 2.0 | 2.0 | 0.07 | 0.01 | 0.01 | 90 | 1018.7 |
| 20260901201002 | 86 | 79 | 5.0 | 6.0 | 0.00 | 0.00 | 0.00 | 82 | 1018.3 |
| 20260901200456 | 87 | 184 | 0.0 | 0.0 | 0.00 | 0.00 | 0.00 | 78 | 1018.0 |
| 20260901195955 | 87 | 195 | 0.0 | 0.0 | 0.00 | 0.00 | 0.00 | 77 | 1018.0 |
| 20260901195454 | 88 | 180 | 0.0 | 1.0 | 0.00 | 0.00 | 0.00 | 73 | 1018.1 |
| 20260901194948 | 89 | 174 | 1.0 | 1.0 | 0.00 | 0.00 | 0.00 | 66 | 1018.0 |
| 20260901194444 | 91 | 199 | 2.0 | 2.0 | 0.00 | 0.00 | 0.00 | 62 | 1018.2 |
| 20260901193940 | 91 | 200 | 0.0 | 0.0 | 0.00 | 0.00 | 0.00 | 62 | 1018.3 |
| 20260901193439 | 91 | 207 | 1.0 | 1.0 | 0.00 | 0.00 | 0.00 | 63 | 1018.2 |
| 20260901192939 | 90 | 209 | 1.0 | 1.0 | 0.00 | 0.00 | 0.00 | 63 | 1018.1 |
| 20260901192435 | 90 | 192 | 0.0 | 1.0 | 0.00 | 0.00 | 0.00 | 64 | 1018.5 |
| 20260901191931 | 90 | 188 | 2.0 | 2.0 | 0.00 | 0.00 | 0.00 | 65 | 1018.4 |
| 20260901191426 | 91 | 133 | 1.0 | 1.0 | 0.00 | 0.00 | 0.00 | 64 | 1018.4 |
| 20260901190922 | 91 | 187 | 0.0 | 0.0 | 0.00 | 0.00 | 0.00 | 65 | 1018.3 |
| 20260901190422 | 91 | 105 | 3.0 | 3.0 | 0.00 | 0.00 | 0.00 | 66 | 1018.3 |
| 20260901185920 | 90 | 236 | 2.0 | 3.0 | 0.00 | 0.00 | 0.00 | 64 | 1018.3 |
| 20260901185419 | 90 | 186 | 2.0 | 2.0 | 0.00 | 0.00 | 0.00 | 65 | 1018.5 |
| 20260901184914 | 90 | 98 | 4.0 | 5.0 | 0.00 | 0.00 | 0.00 | 64 | 1018.5 |
| 20260901184410 | 90 | 127 | 2.0 | 2.0 | 0.00 | 0.00 | 0.00 | 64 | 1018.4 |
| 20260901183905 | 90 | 151 | 0.0 | 0.0 | 0.00 | 0.00 | 0.00 | 64 | 1018.5 |
| 20260901183404 | 90 | 30 | 2.0 | 3.0 | 0.00 | 0.00 | 0.00 | 64 | 1018.4 |
| 20260901182900 | 90 | 159 | 1.0 | 2.0 | 0.00 | 0.00 | 0.00 | 65 | 1018.5 |
| 20260901182355 | 90 | 165 | 2.0 | 2.0 | 0.00 | 0.00 | 0.00 | 65 | 1018.5 |
| 20260901181850 | 90 | 164 | 1.0 | 1.0 | 0.00 | 0.00 | 0.00 | 66 | 1018.8 |
| 20260901181345 | 90 | 71 | 1.0 | 2.0 | 0.00 | 0.00 | 0.00 | 66 | 1018.7 |
| 20260901180844 | 89 | 134 | 1.0 | 1.0 | 0.00 | 0.00 | 0.00 | 66 | 1018.9 |
| 20260901180343 | 89 | 321 | 2.0 | 2.0 | 0.00 | 0.00 | 0.00 | 67 | 1019.0 |
| 20260901175842 | 90 | 256 | 4.0 | 6.0 | 0.00 | 0.00 | 0.00 | 66 | 1019.0 |
| 20260901175337 | 90 | 106 | 1.0 | 1.0 | 0.00 | 0.00 | 0.00 | 66 | 1019.4 |
| 20260901174832 | 90 | 315 | 3.0 | 3.0 | 0.00 | 0.00 | 0.00 | 66 | 1019.4 |
| 20260901174328 | 90 | 113 | 1.0 | 1.0 | 0.00 | 0.00 | 0.00 | 65 | 1019.2 |
| 20260901173823 | 89 | 312 | 2.0 | 2.0 | 0.00 | 0.00 | 0.00 | 68 | 1019.7 |
| 20260901173318 | 88 | 56 | 1.0 | 1.0 | 0.00 | 0.00 | 0.00 | 69 | 1019.8 |
| 20260901172815 | 88 | 210 | 1.0 | 1.0 | 0.00 | 0.00 | 0.00 | 68 | 1019.8 |
| 20260901172314 | 88 | 320 | 2.0 | 3.0 | 0.00 | 0.00 | 0.00 | 67 | 1019.8 |
| 20260901171812 | 88 | 210 | 1.0 | 2.0 | 0.00 | 0.00 | 0.00 | 69 | 1020.0 |
| 20260901171311 | 87 | 300 | 2.0 | 2.0 | 0.00 | 0.00 | 0.00 | 70 | 1019.9 |
| 20260901170810 | 87 | 20 | 2.0 | 2.0 | 0.00 | 0.00 | 0.00 | 71 | 1019.8 |
| 20260901170305 | 87 | 171 | 2.0 | 3.0 | 0.00 | 0.00 | 0.00 | 71 | 1020.1 |
| 20260901165803 | 87 | 74 | 0.0 | 1.0 | 0.00 | 0.00 | 0.00 | 71 | 1020.3 |
| 20260901165258 | 87 | 293 | 2.0 | 3.0 | 0.00 | 0.00 | 0.00 | 73 | 1020.3 |
| 20260901164755 | 87 | 218 | 1.0 | 1.0 | 0.00 | 0.00 | 0.00 | 73 | 1020.4 |
| 20260901164250 | 86 | 78 | 3.0 | 3.0 | 0.00 | 0.00 | 0.00 | 73 | 1020.4 |
| 20260901163745 | 86 | 123 | 1.0 | 2.0 | 0.00 | 0.00 | 0.00 | 74 | 1020.5 |
| 20260901163244 | 86 | 132 | 1.0 | 1.0 | 0.00 | 0.00 | 0.00 | 73 | 1020.4 |
| 20260901162739 | 86 | 98 | 3.0 | 5.0 | 0.00 | 0.00 | 0.00 | 74 | 1020.6 |
| 20260901162238 | 86 | 69 | 3.0 | 5.0 | 0.00 | 0.00 | 0.00 | 74 | 1020.6 |
| 20260901161737 | 87 | 75 | 3.0 | 5.0 | 0.00 | 0.00 | 0.00 | 73 | 1020.5 |
| 20260901161232 | 87 | 81 | 1.0 | 1.0 | 0.00 | 0.00 | 0.00 | 72 | 1020.6 |
| 20260901160729 | 87 | 198 | 1.0 | 2.0 | 0.00 | 0.00 | 0.00 | 73 | 1020.5 |
| 20260901160224 | 87 | 100 | 1.0 | 3.0 | 0.00 | 0.00 | 0.00 | 73 | 1020.4 |
| 20260901155722 | 87 | 341 | 3.0 | 3.0 | 0.00 | 0.00 | 0.00 | 73 | 1020.4 |
| 20260901155218 | 87 | 86 | 2.0 | 3.0 | 0.00 | 0.00 | 0.00 | 74 | 1020.5 |
| 20260901154713 | 88 | 94 | 1.0 | 1.0 | 0.00 | 0.00 | 0.00 | 72 | 1020.5 |
| 20260901154208 | 88 | 90 | 4.0 | 6.0 | 0.00 | 0.00 | 0.00 | 72 | 1020.6 |
| 20260901153703 | 87 | 325 | 3.0 | 3.0 | 0.00 | 0.00 | 0.00 | 72 | 1020.4 |
| 20260901153157 | 88 | 105 | 2.0 | 2.0 | 0.00 | 0.00 | 0.00 | 71 | 1020.9 |
| 20260901152651 | 89 | 38 | 1.0 | 2.0 | 0.00 | 0.00 | 0.00 | 71 | 1020.7 |
| 20260901152150 | 88 | 77 | 1.0 | 2.0 | 0.00 | 0.00 | 0.00 | 72 | 1020.9 |
| 20260901151646 | 88 | 64 | 2.0 | 2.0 | 0.00 | 0.00 | 0.00 | 72 | 1020.6 |
| 20260901151145 | 89 | 101 | 8.0 | 9.0 | 0.00 | 0.00 | 0.00 | 71 | 1020.6 |
| 20260901150645 | 88 | 328 | 3.0 | 3.0 | 0.00 | 0.00 | 0.00 | 72 | 1020.7 |
| 20260901150143 | 89 | 71 | 1.0 | 2.0 | 0.00 | 0.00 | 0.00 | 70 | 1020.8 |
| 20260901145641 | 88 | 182 | 0.0 | 0.0 | 0.00 | 0.00 | 0.00 | 72 | 1021.1 |
| 20260901145141 | 88 | 60 | 2.0 | 2.0 | 0.00 | 0.00 | 0.00 | 73 | 1021.0 |
| 20260901144637 | 89 | 84 | 2.0 | 2.0 | 0.00 | 0.00 | 0.00 | 72 | 1020.8 |
| 20260901144132 | 89 | 91 | 1.0 | 2.0 | 0.00 | 0.00 | 0.00 | 71 | 1020.7 |
| 20260901143627 | 88 | 119 | 1.0 | 1.0 | 0.00 | 0.00 | 0.00 | 72 | 1020.7 |
| 20260901143124 | 88 | 192 | 0.0 | 0.0 | 0.00 | 0.00 | 0.00 | 72 | 1020.7 |
| 20260901142620 | 87 | 86 | 1.0 | 1.0 | 0.00 | 0.00 | 0.00 | 74 | 1020.8 |
| 20260901142119 | 87 | 299 | 3.0 | 3.0 | 0.00 | 0.00 | 0.00 | 75 | 1020.7 |
| 20260901141613 | 87 | 69 | 1.0 | 1.0 | 0.00 | 0.00 | 0.00 | 75 | 1020.9 |
| 20260901141108 | 86 | 187 | 0.0 | 1.0 | 0.00 | 0.00 | 0.00 | 78 | 1020.6 |
| 20260901140602 | 86 | 112 | 2.0 | 2.0 | 0.00 | 0.00 | 0.00 | 78 | 1020.8 |
| 20260901135601 | 84 | 135 | 2.0 | 3.0 | 0.00 | 0.00 | 0.00 | 80 | 1020.7 |
| 20260901135056 | 84 | 70 | 1.0 | 3.0 | 0.00 | 0.00 | 0.00 | 81 | 1020.9 |
| 20260901134552 | 85 | 102 | 3.0 | 6.0 | 0.00 | 0.00 | 0.00 | 79 | 1020.8 |
| 20260901134052 | 86 | 130 | 2.0 | 2.0 | 0.00 | 0.00 | 0.00 | 80 | 1020.6 |
| 20260901133551 | 85 | 105 | 1.0 | 2.0 | 0.00 | 0.00 | 0.00 | 82 | 1020.6 |
| 20260901133050 | 84 | 112 | 0.0 | 1.0 | 0.00 | 0.00 | 0.00 | 84 | 1020.7 |
| 20260901132544 | 82 | 112 | 1.0 | 2.0 | 0.00 | 0.00 | 0.00 | 87 | 1020.9 |
| 20260901132038 | 82 | 157 | 1.0 | 1.0 | 0.00 | 0.00 | 0.00 | 87 | 1020.8 |
| 20260901131532 | 82 | 135 | 0.0 | 0.0 | 0.00 | 0.00 | 0.00 | 88 | 1020.7 |
| 20260901131022 | 82 | 157 | 0.0 | 0.0 | 0.00 | 0.00 | 0.00 | 89 | 1020.6 |
| 20260901130522 | 81 | 171 | 0.0 | 0.0 | 0.00 | 0.00 | 0.00 | 91 | 1020.5 |
| 20260901130020 | 80 | 167 | 1.0 | 1.0 | 0.00 | 0.00 | 0.00 | 93 | 1020.5 |
| 20260901125519 | 80 | 163 | 0.0 | 1.0 | 0.00 | 0.00 | 0.00 | 98 | 1020.3 |
| 20260901125014 | 79 | 222 | 0.0 | 1.0 | 0.00 | 0.00 | 0.00 | 99 | 1020.1 |
| 20260901124509 | 78 | 204 | 0.0 | 1.0 | 0.00 | 0.00 | 0.00 | 99 | 1020.2 |
| 20260901124004 | 78 | 205 | 0.0 | 0.0 | 0.00 | 0.00 | 0.00 | 99 | 1020.2 |
| 20260901123459 | 77 | 188 | 0.0 | 0.0 | 0.00 | 0.00 | 0.00 | 99 | 1019.9 |
| 20260901122957 | 76 | 192 | 0.0 | 0.0 | 0.00 | 0.00 | 0.00 | 99 | 1020.2 |
| 20260901122456 | 75 | 195 | 0.0 | 0.0 | 0.00 | 0.00 | 0.00 | 99 | 1020.1 |
| 20260901121950 | 75 | 201 | 0.0 | 0.0 | 0.00 | 0.00 | 0.00 | 99 | 1020.1 |
| 20260901121446 | 74 | 199 | 0.0 | 0.0 | 0.00 | 0.00 | 0.00 | 99 | 1019.9 |
| 20260901120941 | 74 | 204 | 0.0 | 0.0 | 0.00 | 0.00 | 0.00 | 99 | 1020.0 |
| 20260901120440 | 74 | 204 | 0.0 | 0.0 | 0.00 | 0.00 | 0.00 | 99 | 1020.1 |
| 20260901115936 | 74 | 204 | 0.0 | 0.0 | 0.00 | 0.00 | 0.00 | 99 | 1020.1 |
| 20260901115436 | 74 | 203 | 0.0 | 0.0 | 0.00 | 0.00 | 0.00 | 99 | 1019.9 |
| 20260901114929 | 74 | 204 | 0.0 | 0.0 | 0.00 | 0.00 | 0.00 | 99 | 1020.0 |
| 20260901114424 | 74 | 200 | 0.0 | 0.0 | 0.00 | 0.00 | 0.00 | 99 | 1019.8 |
| 20260901113922 | 74 | 201 | 0.0 | 0.0 | 0.00 | 0.00 | 0.00 | 99 | 1019.8 |
| 20260901113421 | 74 | 204 | 0.0 | 0.0 | 0.00 | 0.00 | 0.00 | 99 | 1020.0 |
| 20260901112917 | 74 | 206 | 0.0 | 0.0 | 0.00 | 0.00 | 0.00 | 99 | 1019.7 |
| 20260901112411 | 74 | 195 | 0.0 | 0.0 | 0.00 | 0.00 | 0.00 | 99 | 1020.0 |
| 20260901111906 | 74 | 202 | 0.0 | 0.0 | 0.00 | 0.00 | 0.00 | 99 | 1019.5 |
| 20260901111404 | 74 | 203 | 0.0 | 0.0 | 0.00 | 0.00 | 0.00 | 99 | 1019.6 |
| 20260901110903 | 74 | 205 | 0.0 | 0.0 | 0.00 | 0.00 | 0.00 | 99 | 1019.6 |
| 20260901110359 | 75 | 193 | 0.0 | 0.0 | 0.00 | 0.00 | 0.00 | 99 | 1019.6 |
| 20260901105855 | 75 | 200 | 0.0 | 0.0 | 0.00 | 0.00 | 0.00 | 99 | 1019.2 |
| 20260901105350 | 75 | 200 | 0.0 | 0.0 | 0.00 | 0.00 | 0.00 | 99 | 1019.4 |
| 20260901104846 | 75 | 204 | 0.0 | 0.0 | 0.00 | 0.00 | 0.00 | 99 | 1019.6 |
| 20260901104341 | 75 | 203 | 0.0 | 0.0 | 0.00 | 0.00 | 0.00 | 99 | 1019.4 |
| 20260901103836 | 75 | 202 | 0.0 | 0.0 | 0.00 | 0.00 | 0.00 | 99 | 1019.2 |
| 20260901103330 | 75 | 200 | 0.0 | 0.0 | 0.00 | 0.00 | 0.00 | 99 | 1019.4 |
| 20260901102825 | 75 | 205 | 0.0 | 0.0 | 0.00 | 0.00 | 0.00 | 99 | 1019.5 |
| 20260901102320 | 75 | 206 | 0.0 | 0.0 | 0.00 | 0.00 | 0.00 | 98 | 1019.4 |
| 20260901101815 | 75 | 204 | 0.0 | 0.0 | 0.00 | 0.00 | 0.00 | 98 | 1019.5 |
| 20260901101310 | 75 | 201 | 0.0 | 0.0 | 0.00 | 0.00 | 0.00 | 98 | 1019.5 |
| 20260901100809 | 75 | 200 | 0.0 | 0.0 | 0.00 | 0.00 | 0.00 | 98 | 1019.4 |
| 20260901100304 | 75 | 199 | 0.0 | 0.0 | 0.00 | 0.00 | 0.00 | 98 | 1019.5 |
| 20260901095803 | 75 | 203 | 0.0 | 0.0 | 0.00 | 0.00 | 0.00 | 98 | 1019.4 |
| 20260901095300 | 75 | 201 | 0.0 | 0.0 | 0.00 | 0.00 | 0.00 | 98 | 1019.6 |
| 20260901094754 | 75 | 198 | 0.0 | 0.0 | 0.00 | 0.00 | 0.00 | 98 | 1019.1 |
| 20260901094249 | 75 | 199 | 0.0 | 0.0 | 0.00 | 0.00 | 0.00 | 98 | 1019.5 |
| 20260901093745 | 75 | 199 | 0.0 | 0.0 | 0.00 | 0.00 | 0.00 | 97 | 1019.6 |
| 20260901093244 | 75 | 200 | 0.0 | 0.0 | 0.00 | 0.00 | 0.00 | 97 | 1019.6 |
| 20260901092740 | 75 | 195 | 0.0 | 0.0 | 0.00 | 0.00 | 0.00 | 97 | 1019.5 |
| 20260901092235 | 75 | 200 | 0.0 | 0.0 | 0.00 | 0.00 | 0.00 | 97 | 1019.5 |
| 20260901091731 | 75 | 204 | 0.0 | 0.0 | 0.00 | 0.00 | 0.00 | 97 | 1019.5 |
| 20260901091226 | 75 | 202 | 0.0 | 0.0 | 0.00 | 0.00 | 0.00 | 97 | 1019.5 |
| 20260901090721 | 76 | 201 | 0.0 | 0.0 | 0.00 | 0.00 | 0.00 | 97 | 1019.6 |
| 20260901090216 | 76 | 201 | 0.0 | 0.0 | 0.00 | 0.00 | 0.00 | 96 | 1019.5 |
| 20260901085712 | 76 | 201 | 0.0 | 0.0 | 0.00 | 0.00 | 0.00 | 96 | 1019.7 |
| 20260901085207 | 76 | 201 | 0.0 | 0.0 | 0.00 | 0.00 | 0.00 | 96 | 1019.7 |
| 20260901084704 | 76 | 194 | 0.0 | 0.0 | 0.00 | 0.00 | 0.00 | 96 | 1019.7 |
| 20260901084200 | 76 | 201 | 0.0 | 0.0 | 0.00 | 0.00 | 0.00 | 96 | 1019.7 |
| 20260901083659 | 76 | 198 | 0.0 | 0.0 | 0.00 | 0.00 | 0.00 | 96 | 1019.6 |
| 20260901083158 | 77 | 201 | 0.0 | 0.0 | 0.00 | 0.00 | 0.00 | 95 | 1019.4 |
| 20260901082652 | 77 | 204 | 0.0 | 0.0 | 0.00 | 0.00 | 0.00 | 95 | 1019.7 |
| 20260901082148 | 77 | 193 | 0.0 | 0.0 | 0.00 | 0.00 | 0.00 | 95 | 1019.4 |
| 20260901081643 | 77 | 201 | 0.0 | 0.0 | 0.00 | 0.00 | 0.00 | 95 | 1019.7 |
| 20260901081143 | 77 | 203 | 0.0 | 0.0 | 0.00 | 0.00 | 0.00 | 95 | 1019.6 |
| 20260901080643 | 77 | 207 | 0.0 | 0.0 | 0.00 | 0.00 | 0.00 | 95 | 1019.7 |
| 20260901080141 | 77 | 208 | 0.0 | 0.0 | 0.00 | 0.00 | 0.00 | 94 | 1019.6 |
| 20260901075637 | 77 | 201 | 0.0 | 0.0 | 0.00 | 0.00 | 0.00 | 94 | 1019.7 |
| 20260901075136 | 77 | 203 | 0.0 | 0.0 | 0.00 | 0.00 | 0.00 | 94 | 1019.7 |
| 20260901074636 | 77 | 197 | 0.0 | 0.0 | 0.00 | 0.00 | 0.00 | 94 | 1019.7 |
| 20260901074131 | 77 | 207 | 0.0 | 0.0 | 0.00 | 0.00 | 0.00 | 93 | 1019.7 |
| 20260901073628 | 77 | 199 | 0.0 | 0.0 | 0.00 | 0.00 | 0.00 | 93 | 1019.6 |
| 20260901073123 | 78 | 193 | 0.0 | 0.0 | 0.00 | 0.00 | 0.00 | 93 | 1019.8 |
| 20260901072618 | 78 | 202 | 0.0 | 0.0 | 0.00 | 0.00 | 0.00 | 92 | 1019.8 |
| 20260901072113 | 78 | 198 | 0.0 | 0.0 | 0.00 | 0.00 | 0.00 | 92 | 1019.8 |
| 20260901071607 | 78 | 200 | 0.0 | 0.0 | 0.00 | 0.00 | 0.00 | 92 | 1019.7 |
| 20260901071106 | 78 | 206 | 0.0 | 0.0 | 0.00 | 0.00 | 0.00 | 91 | 1019.7 |
| 20260901070555 | 78 | 191 | 0.0 | 0.0 | 0.00 | 0.00 | 0.00 | 91 | 1019.7 |
| 20260901070050 | 79 | 204 | 0.0 | 0.0 | 0.00 | 0.00 | 0.00 | 90 | 1019.6 |
| 20260901065545 | 79 | 196 | 0.0 | 0.0 | 0.00 | 0.00 | 0.00 | 90 | 1019.9 |
| 20260901065039 | 79 | 176 | 0.0 | 1.0 | 0.00 | 0.00 | 0.00 | 90 | 1020.0 |
| 20260901064537 | 79 | 219 | 0.0 | 1.0 | 0.00 | 0.00 | 0.00 | 89 | 1019.9 |
| 20260901064032 | 80 | 200 | 0.0 | 0.0 | 0.00 | 0.00 | 0.00 | 89 | 1020.0 |
| 20260901063524 | 80 | 211 | 0.0 | 0.0 | 0.00 | 0.00 | 0.00 | 88 | 1019.7 |
| 20260901063019 | 80 | 202 | 0.0 | 0.0 | 0.00 | 0.00 | 0.00 | 88 | 1019.7 |
| 20260901062514 | 80 | 212 | 1.0 | 1.0 | 0.00 | 0.00 | 0.00 | 88 | 1019.8 |
| 20260901062005 | 80 | 200 | 0.0 | 0.0 | 0.00 | 0.00 | 0.00 | 87 | 1019.9 |
| 20260901061502 | 80 | 200 | 0.0 | 0.0 | 0.00 | 0.00 | 0.00 | 87 | 1019.7 |
| 20260901061000 | 81 | 208 | 0.0 | 0.0 | 0.00 | 0.00 | 0.00 | 86 | 1019.8 |
| 20260901060450 | 81 | 200 | 0.0 | 0.0 | 0.00 | 0.00 | 0.00 | 86 | 1019.9 |
| 20260901055950 | 81 | 195 | 0.0 | 0.0 | 0.00 | 0.00 | 0.00 | 86 | 1020.0 |
| 20260901055446 | 81 | 199 | 0.0 | 1.0 | 0.00 | 0.00 | 0.00 | 85 | 1020.0 |
| 20260901054943 | 81 | 198 | 0.0 | 0.0 | 0.00 | 0.00 | 0.00 | 85 | 1020.0 |
| 20260901054440 | 81 | 171 | 0.0 | 1.0 | 0.00 | 0.00 | 0.00 | 85 | 1020.2 |
| 20260901053936 | 81 | 200 | 0.0 | 0.0 | 0.00 | 0.00 | 0.00 | 85 | 1020.0 |
| 20260901053430 | 82 | 189 | 0.0 | 0.0 | 0.00 | 0.00 | 0.00 | 85 | 1020.2 |
| 20260901052926 | 82 | 186 | 0.0 | 0.0 | 0.00 | 0.00 | 0.00 | 84 | 1019.9 |
| 20260901052421 | 82 | 196 | 0.0 | 1.0 | 0.00 | 0.00 | 0.00 | 84 | 1019.9 |
| 20260901051914 | 82 | 200 | 1.0 | 2.0 | 0.00 | 0.00 | 0.00 | 84 | 1019.9 |
| 20260901051409 | 82 | 197 | 0.0 | 0.0 | 0.00 | 0.00 | 0.00 | 84 | 1019.6 |
| 20260901050904 | 82 | 196 | 0.0 | 0.0 | 0.00 | 0.00 | 0.00 | 84 | 1020.1 |
| 20260901050400 | 82 | 208 | 0.0 | 0.0 | 0.00 | 0.00 | 0.00 | 84 | 1019.8 |
| 20260901045859 | 82 | 195 | 0.0 | 1.0 | 0.00 | 0.00 | 0.00 | 84 | 1019.8 |
| 20260901045354 | 82 | 144 | 1.0 | 2.0 | 0.00 | 0.00 | 0.00 | 84 | 1019.7 |
| 20260901044849 | 82 | 203 | 2.0 | 2.0 | 0.00 | 0.00 | 0.00 | 83 | 1019.5 |
| 20260901044346 | 82 | 164 | 1.0 | 1.0 | 0.00 | 0.00 | 0.00 | 83 | 1019.7 |
| 20260901043841 | 83 | 174 | 1.0 | 1.0 | 0.00 | 0.00 | 0.00 | 83 | 1019.7 |
| 20260901043338 | 83 | 220 | 1.0 | 2.0 | 0.00 | 0.00 | 0.00 | 83 | 1019.7 |
| 20260901042837 | 83 | 162 | 1.0 | 2.0 | 0.00 | 0.00 | 0.00 | 83 | 1019.7 |
| 20260901042337 | 83 | 197 | 1.0 | 2.0 | 0.00 | 0.00 | 0.00 | 83 | 1019.6 |
| 20260901041833 | 83 | 175 | 3.0 | 5.0 | 0.00 | 0.00 | 0.00 | 83 | 1019.6 |
| 20260901041328 | 83 | 159 | 1.0 | 2.0 | 0.00 | 0.00 | 0.00 | 83 | 1019.7 |
| 20260901040828 | 83 | 161 | 3.0 | 3.0 | 0.00 | 0.00 | 0.00 | 83 | 1019.6 |
| 20260901040327 | 83 | 146 | 1.0 | 1.0 | 0.00 | 0.00 | 0.00 | 83 | 1019.6 |